This is the latest recevied weather packets stored in our database for station/object K8RRT. If no packets are shown the sender has not sent any weather packets the latest 10 day(s).
| Time | Temp. | Humidity | Pressure | Rain* | Wind** | Luminosity | Snow |
|---|---|---|---|---|---|---|---|
| 1778029652 | 18.89° C | 65% | 1004.1 hPa | 0 mm | - | 0 W/m² | - |
| 1778029349 | 18.89° C | 66% | 1004.3 hPa | 0 mm | - | 0 W/m² | - |
| 1778029046 | 18.89° C | 67% | 1004.1 hPa | 0 mm | - | 0 W/m² | - |
| 1778028742 | 19.44° C | 65% | 1004.6 hPa | 0 mm | - | 0 W/m² | - |
| 1778028438 | 19.44° C | 63% | 1004.4 hPa | 0 mm | - | 0 W/m² | - |
| 1778028136 | 20° C | 62% | 1004.6 hPa | 0 mm | - | 0 W/m² | - |
| 1778027832 | 20° C | 58% | 1004.2 hPa | 0 mm | - | 0 W/m² | - |
| 1778027529 | 20.56° C | 59% | 1004.4 hPa | 0 mm | - | 0 W/m² | - |
| 1778027224 | 20.56° C | 59% | 1004.6 hPa | 0 mm | - | 0 W/m² | - |
| 1778026920 | 20.56° C | 57% | 1004.8 hPa | 0 mm | - | 0 W/m² | - |
| 1778026616 | 20.56° C | 54% | 1004.8 hPa | 0 mm | - | 0 W/m² | - |
| 1778026314 | 21.11° C | 54% | 1004.6 hPa | 0 mm | - | 0 W/m² | - |
| 1778026011 | 21.11° C | 51% | 1004.6 hPa | 0 mm | - | 1 W/m² | - |
| 1778025709 | 21.67° C | 53% | 1004.7 hPa | 0 mm | - | 3 W/m² | - |
| 1778025406 | 21.11° C | 53% | 1004.7 hPa | 0 mm | - | 10 W/m² | - |
| 1778025104 | 21.67° C | 53% | 1004.9 hPa | 0 mm | - | 12 W/m² | - |
| 1778024800 | 21.67° C | 50% | 1004.8 hPa | 0 mm | - | 10 W/m² | - |
| 1778024497 | 22.22° C | 50% | 1005 hPa | 0 mm | - | 7 W/m² | - |
| 1778024194 | 22.22° C | 49% | 1004.9 hPa | 0 mm | - | 10 W/m² | - |
| 1778023892 | 22.22° C | 48% | 1004.7 hPa | 0 mm | - | 10 W/m² | - |
| 1778023589 | 22.22° C | 48% | 1005 hPa | 0 mm | - | 12 W/m² | - |
| 1778023286 | 22.22° C | 47% | 1005.1 hPa | 0 mm | - | 12 W/m² | - |
| 1778022983 | 22.22° C | 48% | 1005.1 hPa | 0 mm | - | 14 W/m² | - |
| 1778022682 | 22.78° C | 48% | 1005.5 hPa | 0 mm | - | 18 W/m² | - |
| 1778022380 | 22.78° C | 48% | 1005.3 hPa | 0 mm | - | 17 W/m² | - |
* Rain latest hour (hover to see other rain measurements)
** Current wind speed in m/s (hover to see current wind gust speed)